Regional Weather Roundup
Issued by NWS Bismarck, ND

Home | Current Version | Previous Version | Text Only | Print | Product List | Glossary On
Versions: 1 2 3 4 5 6 7 8 9 10 11 12 13 14 15 16 17 18 19 20 21 22 23 24 25 26 27 28 29 30 31 32 33 34 35 36 37 38 39 40 41 42 43 44 45 46 47 48 49 50
000
ASUS43 KBIS 301910
RWRBIS

NWR BROADCAST TEXT
NATIONAL WEATHER SERVICE BISMARCK ND
200 PM CDT SAT MAY 30 2015

NOTE: "FAIR" INDICATES FEW OR NO CLOUDS BELOW 12,000 FEET WITH NO
SIGNIFICANT WEATHER AND/OR OBSTRUCTIONS TO VISIBILITY.


CITY           SKY/WX    TMP DP  RH WIND       PRES   REMARKS
WILLISTON      SUNNY     60  35  39 SE16G24   30.24F
MINOT          SUNNY     53  29  39 E14       30.33F
MINOT AFB      SUNNY     55  32  41 SE13      30.32F
BISMARCK       SUNNY     55  33  43 MISG      30.34F
DICKINSON      SUNNY     57  36  45 SE23G29   30.22F
GARRISON         N/A     54  31  41 SE12G21   30.31F
HETTINGER ARPT SUNNY     57  38  48 SE15G28   30.25F
JAMESTOWN      MOSUNNY   52  33  48 NE12      30.35F
BEACH          FAIR      59  37  44 SE24G30   30.18F
CARRINGTON     FAIR      48  28  46 NE12G17   30.36F
CROSBY         FAIR      57  32  38 SE16G24   30.27F
HARVEY         FAIR      50  25  37 E8        30.36F
HAZEN          FAIR      55  32  41 SE10G18   30.31F
LINTON         FAIR      52  32  46 N6        30.34F
MANDAN         FAIR      52  32  46 E9        30.33F
OAKES            N/A     50  36  57 N12       30.35F
STANLEY        FAIR      55  34  44 SE12G23   30.29F
WATFORD CITY   FAIR      57  37  47 SE20G29   30.22F
$$

CITY           SKY/WX    TMP DP  RH WIND       PRES   REMARKS
GRAND FORKS    MOSUNNY   51  30  44 N9        30.38F
GRAND FORKS AF SUNNY     51  28  41 E9        30.38F
DEVILS LAKE    SUNNY     48  25  40 NE10      30.36F
FARGO          SUNNY     53  36  52 N10       30.35F
CANDO          FAIR      48  23  37 NE8       30.38F
CAVALIER       FAIR      48  28  46 NE9       30.40F
GRAFTON        FAIR      48  30  49 VRB5G15   30.40F
LANGDON        FAIR      52  27  37 VRB6G16   30.38F
ROLLA          FAIR      46  23  39 E3        30.38F
WALHALLA         N/A     48  28  46 MISG      30.40F
$$

CITY           SKY/WX    TMP DP  RH WIND       PRES   REMARKS
ABERDEEN       SUNNY     52  33  48 NE8       30.34F
MOBRIDGE       PTSUNNY   57  34  41 VRB5      30.31F
BUFFALO          N/A     60  40  47 SE28G36   30.13F
RAPID CITY     SUNNY     60  44  55 S18G24    30.23F
GLASGOW        MOSUNNY   65  38  36 SE23G35   30.08F
SIDNEY         SUNNY     64  34  32 SE13G24   30.19F
WOLF POINT     PTSUNNY   64  39  39 SE12G20   30.14F
GLENDIVE       PTSUNNY   63  37  39 SE17      30.16F
MILES CITY     MOSUNNY   70  43  37 SE22G30   30.07F
BAKER          LGT RAIN  63  38  39 SE24G32   30.16F
$$

CITY           SKY/WX    TMP DP  RH WIND       PRES   REMARKS
BILLINGS       CLOUDY    68  52  56 VRB6      30.03F
GREAT FALLS    CLOUDY    59  53  80 CALM      30.02F
REGINA         MOSUNNY   57  34  41 SE18G25   30.26F
ESTEVAN        MOSUNNY   55  34  44 SE16G23   30.29F
$$



USA.gov is the U.S. government's official web portal to all federal, state and local government web resources and services.